Location: Monteux
(44.0348°N, 4.9972°E)
Time: 17:35:48
(UTC+00:00)

Cosmos 1943 Rocket - Pass Details

Date: 30 November 2020
Orbit: 811 x 844 km, 71.0° (Epoch: 17 January)

Event Time Altitude Azimuth Distance (km) Brightness Sun altitude
Rises 18:12:35 0° 327° (NNW) 3,360 5.6 -22.6°
Reaches altitude 10° 18:15:10 10° 319° (NW) 2,428 5.0 -23.1°
Maximum altitude 18:20:12 36° 254° (WSW) 1,282 3.7 -24.0°
Drops below altitude 10° 18:25:15 10° 189° (S) 2,433 4.8 -24.9°
Sets 18:27:51 0° 181° (S) 3,368 5.4 -25.3°
